Tulsa Jones, OK

10:02 PM CDT on March 26, 2017 (GMT -0500)
Jones Jr.

Weather History for KRVS - June, 2013

Change the Weather History Date:

Wednesday, June 12, 2013

  Actual Average (KTUL) Record (KTUL)
Temperature  
Mean Temperature 86 °F -  
Max Temperature 96 °F 87 °F 99 °F (1953)
Min Temperature 75 °F 67 °F 50 °F (1913)
Cooling Degree Days 20    
Growing Degree Days 36 (Base 50)    
Moisture  
Dew Point 70 °F    
Average Humidity 61    
Maximum Humidity 84    
Minimum Humidity 40    
Precipitation  
Precipitation 0.00 in - - ()
Sea Level Pressure  
Sea Level Pressure 29.92 in    
Wind  
Wind Speed 9 mph (SSW)    
Max Wind Speed 18 mph    
Max Gust Speed 26 mph    
Visibility 10 miles    
Events      
Averages and records for this station are not official NWS values.
T = Trace of Precipitation, MM = Missing Value Source: NWS Daily Summary

Daily Weather History Graph

Daily Weather History Graph

Search for Another Location

Airport or City:

Trip Planner

Search our weather history database for the weather conditions in past years. The results will help you decide how hot, cold, wet, or windy it might be!

Date:

Astronomy

Jun. 12, 2013 Rise Set
Actual Time 6:06 AM CDT 8:41 PM CDT
Civil Twilight 5:36 AM CDT 9:11 PM CDT
Nautical Twilight 4:58 AM CDT 9:49 PM CDT
Astronomical Twilight 4:17 AM CDT 10:30 PM CDT
Moon 9:41 AM CDT (6/12) 11:24 PM CDT (6/12)
Length of Visible Light 15h 35m
Length of Day
14h 34m
Waxing Crescent, 14% of the Moon is Illuminated
Jun 12
Waxing Crescent
Jun 16
First Quarter
Jun 23
Full
Jun 29
Last Quarter
Jul 8
New

Hourly Weather History & Observations

Time (CDT) Temp. Heat Index Dew Point Humidity Pressure Visibility Wind Dir Wind Speed Gust Speed Precip Events Conditions
12:53 AM 81.0 °F 84.4 °F 70.0 °F 69% 29.91 in 10.0 mi South 8.1 mph - N/A   Clear
1:53 AM 81.0 °F 84.1 °F 69.1 °F 67% 29.90 in 10.0 mi South 10.4 mph - N/A   Clear
2:53 AM 78.1 °F - 70.0 °F 76% 29.89 in 10.0 mi SSE 3.5 mph - N/A   Clear
3:53 AM 78.1 °F - 70.0 °F 76% 29.89 in 10.0 mi South 9.2 mph - N/A   Clear
4:53 AM 77.0 °F - 71.1 °F 82% 29.91 in 10.0 mi SSW 5.8 mph - N/A   Clear
5:53 AM 75.0 °F - 70.0 °F 84% 29.93 in 10.0 mi SSW 4.6 mph - N/A   Clear
6:53 AM 78.1 °F - 71.1 °F 79% 29.95 in 10.0 mi South 6.9 mph - N/A   Clear
7:53 AM 80.1 °F 83.2 °F 70.0 °F 71% 29.95 in 10.0 mi SSW 10.4 mph 18.4 mph N/A   Clear
8:53 AM 82.9 °F 86.5 °F 69.1 °F 63% 29.97 in 10.0 mi SSW 10.4 mph 21.9 mph N/A   Clear
9:53 AM 86.0 °F 89.4 °F 68.0 °F 55% 29.96 in 10.0 mi SSW 13.8 mph 21.9 mph N/A   Clear
10:53 AM 89.1 °F 92.9 °F 68.0 °F 50% 29.94 in 10.0 mi South 18.4 mph 26.5 mph N/A   Clear
11:53 AM 91.0 °F 95.2 °F 68.0 °F 47% 29.93 in 10.0 mi SSW 15.0 mph 26.5 mph N/A   Clear
12:53 PM 93.0 °F 97.4 °F 68.0 °F 44% 29.92 in 10.0 mi SSW 17.3 mph 24.2 mph N/A   Clear
1:53 PM 95.0 °F 100.7 °F 69.1 °F 43% 29.92 in 10.0 mi SSW 15.0 mph 25.3 mph N/A   Clear
2:53 PM 95.0 °F 100.7 °F 69.1 °F 43% 29.91 in 10.0 mi SSW 15.0 mph 20.7 mph N/A   Clear
3:53 PM 96.1 °F 101.0 °F 68.0 °F 40% 29.91 in 10.0 mi SSW 13.8 mph 20.7 mph N/A   Clear
4:53 PM 93.9 °F 100.3 °F 70.0 °F 46% 29.90 in 10.0 mi SW 8.1 mph 19.6 mph N/A   Clear
5:53 PM 93.0 °F 97.9 °F 69.1 °F 45% 29.89 in 10.0 mi SW 12.7 mph 20.7 mph N/A   Clear
6:53 PM 91.9 °F 97.4 °F 70.0 °F 48% 29.89 in 10.0 mi SW 8.1 mph 17.3 mph N/A   Clear
7:53 PM 91.0 °F 98.2 °F 72.0 °F 53% 29.89 in 10.0 mi SSW 9.2 mph - N/A   Clear
8:53 PM 87.1 °F 93.6 °F 72.0 °F 61% 29.91 in 10.0 mi South 5.8 mph - N/A   Clear
9:53 PM 84.0 °F 90.2 °F 73.0 °F 69% 29.91 in 10.0 mi South 6.9 mph - N/A   Clear
10:53 PM 81.0 °F 85.8 °F 73.0 °F 77% 29.93 in 10.0 mi SSW 5.8 mph - N/A   Clear
11:53 PM 81.0 °F 85.2 °F 72.0 °F 74% 29.93 in 10.0 mi South 4.6 mph - N/A   Clear